When you browse on this site, cookies collect data to enhance your experience and personalize the content and advertising you see.
Visit our Privacy Policy to learn more. By continuing to use the site, you agree to this use of cookies and data.
  • In Hungary
  • List of Countries
  • For 7 days
  • Water Temperature
  • Satellite Maps
  • Weather Map
  • News
  • Weather Widgets
  • user-avatar
    Login

    Hourly Weather Zaboiky

    Today, 17 January, Thursday

    Time Temperature Precipitation Wind Pressure Humidity
    00:00 0°C° 0 mm 3 mps 727 mmHg 97%
    01:00 -1°C° 0 mm 3 mps 726 mmHg 95%
    02:00 +1°C° 0 mm 2 mps 726 mmHg 97%
    03:00 -1°C° 0 mm 3 mps 726 mmHg 95%
    04:00 -1°C° 0 mm 3 mps 725 mmHg 93%
    05:00 -2°C° 0 mm 4 mps 725 mmHg 92%
    06:00 -3°C° 0 mm 4 mps 725 mmHg 90%
    07:00 -3°C° 0 mm 4 mps 725 mmHg 89%
    08:00 -4°C° 0 mm 4 mps 724 mmHg 87%
    09:00 -3°C° 0 mm 4 mps 724 mmHg 87%
    10:00 -2°C° 0 mm 4 mps 724 mmHg 87%
    11:00 -1°C° 0 mm 4 mps 724 mmHg 86%
    12:00 0°C° 0 mm 4 mps 724 mmHg 89%
    13:00 0°C° 0 mm 4 mps 724 mmHg 91%
    14:00 0°C° 0 mm 5 mps 724 mmHg 93%
    15:00 0°C° 0 mm 5 mps 724 mmHg 90%
    16:00 0°C° 0 mm 4 mps 725 mmHg 87%
    17:00 0°C° 0 mm 4 mps 725 mmHg 84%
    18:00 0°C° 0 mm 4 mps 725 mmHg 83%
    19:00 -1°C° 0 mm 4 mps 725 mmHg 83%
    20:00 -1°C° 0 mm 3 mps 725 mmHg 82%
    21:00 -1°C° 0 mm 3 mps 725 mmHg 83%
    22:00 -1°C° 0 mm 3 mps 725 mmHg 83%
    23:00 -1°C° 0 mm 3 mps 725 mmHg 83%

    Tomorrow, 18 January, Friday

    Time Temperature Precipitation Wind Pressure Humidity
    00:00 -1°C° 0 mm 3 mps 725 mmHg 83%
    01:00 -1°C° 0 mm 3 mps 725 mmHg 84%
    02:00 -1°C° 0 mm 3 mps 725 mmHg 84%
    03:00 -1°C° 0 mm 3 mps 725 mmHg 85%
    04:00 -1°C° 0 mm 3 mps 725 mmHg 86%
    05:00 -1°C° 0 mm 3 mps 725 mmHg 87%
    06:00 0°C° 0.1 mm 3 mps 725 mmHg 88%
    07:00 0°C° 0.1 mm 3 mps 725 mmHg 90%
    08:00 0°C° 0.1 mm 3 mps 725 mmHg 92%
    09:00 0°C° 0.4 mm 3 mps 725 mmHg 94%
    10:00 0°C° 0.4 mm 3 mps 725 mmHg 96%
    11:00 0°C° 0.4 mm 3 mps 726 mmHg 98%
    12:00 0°C° 0.3 mm 3 mps 726 mmHg 99%
    13:00 0°C° 0.3 mm 3 mps 726 mmHg 99%
    14:00 -1°C° 0.3 mm 4 mps 726 mmHg 99%
    15:00 -1°C° 0.2 mm 4 mps 727 mmHg 96%
    16:00 -2°C° 0.2 mm 4 mps 727 mmHg 92%
    17:00 -2°C° 0.2 mm 4 mps 728 mmHg 88%
    18:00 -3°C° 0 mm 4 mps 728 mmHg 88%
    19:00 -3°C° 0 mm 4 mps 729 mmHg 88%
    20:00 -4°C° 0 mm 5 mps 730 mmHg 87%
    21:00 -5°C° 0 mm 5 mps 730 mmHg 87%
    22:00 -5°C° 0 mm 5 mps 731 mmHg 87%
    23:00 -6°C° 0 mm 5 mps 732 mmHg 87%

    Day after tomorrow, 19 January, Saturday

    Time Temperature Precipitation Wind Pressure Humidity
    00:00 -5°C° 0 mm 4 mps 732 mmHg 88%
    01:00 -6°C° 0 mm 3 mps 732 mmHg 89%
    02:00 -7°C° 0 mm 3 mps 733 mmHg 90%
    03:00 -8°C° 0 mm 3 mps 733 mmHg 91%
    04:00 -8°C° 0 mm 3 mps 733 mmHg 93%
    05:00 -7°C° 0 mm 2 mps 733 mmHg 95%
    06:00 -7°C° 0 mm 2 mps 734 mmHg 94%
    07:00 -7°C° 0 mm 2 mps 734 mmHg 94%
    08:00 -8°C° 0 mm 2 mps 735 mmHg 94%
    09:00 -7°C° 0 mm 2 mps 735 mmHg 93%
    10:00 -6°C° 0 mm 2 mps 735 mmHg 92%
    11:00 -5°C° 0 mm 2 mps 736 mmHg 91%
    12:00 -3°C° 0 mm 1 mps 735 mmHg 90%
    13:00 -2°C° 0 mm 1 mps 735 mmHg 88%
    14:00 -2°C° 0 mm 1 mps 735 mmHg 87%
    15:00 -3°C° 0 mm 1 mps 735 mmHg 89%
    16:00 -5°C° 0 mm 0 mps 735 mmHg 90%
    17:00 -6°C° 0 mm 0 mps 735 mmHg 92%
    18:00 -6°C° 0 mm 0 mps 735 mmHg 91%
    19:00 -6°C° 0 mm 1 mps 735 mmHg 91%
    20:00 -6°C° 0 mm 1 mps 735 mmHg 91%
    21:00 -8°C° 0 mm 2 mps 735 mmHg 91%
    22:00 -8°C° 0 mm 2 mps 735 mmHg 91%
    23:00 -8°C° 0 mm 2 mps 735 mmHg 91%

    20 January, Sunday

    Time Temperature Precipitation Wind Pressure Humidity
    00:00 -8°C° 0 mm 2 mps 735 mmHg 92%
    01:00 -10°C° 0 mm 3 mps 735 mmHg 92%
    02:00 -10°C° 0 mm 3 mps 734 mmHg 92%
    03:00 -10°C° 0 mm 3 mps 734 mmHg 92%
    04:00 -10°C° 0 mm 3 mps 733 mmHg 93%
    05:00 -10°C° 0 mm 3 mps 733 mmHg 93%
    06:00 -11°C° 0 mm 4 mps 733 mmHg 92%
    07:00 -10°C° 0 mm 4 mps 733 mmHg 92%
    08:00 -10°C° 0 mm 4 mps 732 mmHg 91%
    09:00 -10°C° 0 mm 4 mps 732 mmHg 90%
    10:00 -9°C° 0 mm 4 mps 732 mmHg 90%
    11:00 -8°C° 0 mm 5 mps 732 mmHg 89%
    12:00 -8°C° 0.1 mm 4 mps 732 mmHg 90%
    13:00 -8°C° 0.1 mm 4 mps 731 mmHg 90%
    14:00 -7°C° 0.1 mm 3 mps 731 mmHg 91%
    15:00 -7°C° 0.1 mm 3 mps 731 mmHg 92%
    16:00 -6°C° 0.1 mm 2 mps 730 mmHg 93%
    17:00 -6°C° 0.1 mm 2 mps 730 mmHg 95%
    18:00 -6°C° 0.1 mm 1 mps 730 mmHg 95%
    19:00 -6°C° 0.1 mm 1 mps 730 mmHg 96%
    20:00 -6°C° 0.1 mm 0 mps 730 mmHg 96%
    21:00 -6°C° 0.1 mm 1 mps 731 mmHg 96%
    22:00 -6°C° 0.1 mm 1 mps 731 mmHg 96%
    23:00 -4°C° 0.1 mm 1 mps 731 mmHg 96%

    21 January, Monday

    Time Temperature Precipitation Wind Pressure Humidity
    00:00 -6°C° 0 mm 1 mps 731 mmHg 96%
    01:00 -7°C° 0 mm 2 mps 731 mmHg 96%
    02:00 -7°C° 0 mm 2 mps 731 mmHg 96%
    03:00 -7°C° 0 mm 2 mps 731 mmHg 96%
    04:00 -8°C° 0 mm 3 mps 732 mmHg 96%
    05:00 -8°C° 0 mm 3 mps 732 mmHg 95%
    06:00 -9°C° 0 mm 3 mps 732 mmHg 95%
    07:00 -9°C° 0 mm 2 mps 732 mmHg 95%
    08:00 -10°C° 0 mm 2 mps 732 mmHg 95%
    09:00 -9°C° 0 mm 2 mps 733 mmHg 93%
    10:00 -8°C° 0 mm 2 mps 733 mmHg 91%
    11:00 -7°C° 0 mm 2 mps 734 mmHg 89%
    12:00 -7°C° 0 mm 2 mps 734 mmHg 89%
    13:00 -6°C° 0 mm 2 mps 734 mmHg 90%
    14:00 -5°C° 0 mm 2 mps 734 mmHg 90%
    15:00 -6°C° 0 mm 2 mps 734 mmHg 92%
    16:00 -6°C° 0 mm 2 mps 734 mmHg 93%
    17:00 -6°C° 0 mm 1 mps 734 mmHg 95%
    18:00 -6°C° 0 mm 1 mps 734 mmHg 95%
    19:00 -6°C° 0 mm 1 mps 734 mmHg 95%
    20:00 -7°C° 0 mm 0 mps 735 mmHg 96%
    21:00 -7°C° 0 mm 1 mps 735 mmHg 96%
    22:00 -7°C° 0 mm 1 mps 735 mmHg 96%
    23:00 -7°C° 0 mm 1 mps 735 mmHg 96%

    22 January, Tuesday

    Time Temperature Precipitation Wind Pressure Humidity
    00:00 -8°C° 0 mm 2 mps 735 mmHg 96%
    01:00 -7°C° 0 mm 2 mps 735 mmHg 95%
    02:00 -7°C° 0 mm 2 mps 735 mmHg 95%
    03:00 -8°C° 0 mm 2 mps 734 mmHg 95%
    04:00 -9°C° 0 mm 3 mps 734 mmHg 95%
    05:00 -9°C° 0 mm 3 mps 734 mmHg 95%
    06:00 -9°C° 0 mm 3 mps 734 mmHg 95%
    07:00 -10°C° 0 mm 3 mps 733 mmHg 95%
    08:00 -10°C° 0 mm 3 mps 733 mmHg 95%
    09:00 -11°C° 0 mm 4 mps 733 mmHg 94%
    10:00 -11°C° 0 mm 5 mps 733 mmHg 93%
    11:00 -10°C° 0 mm 5 mps 732 mmHg 91%
    12:00 -10°C° 0 mm 5 mps 732 mmHg 90%
    13:00 -10°C° 0 mm 6 mps 731 mmHg 89%
    14:00 -10°C° 0 mm 6 mps 731 mmHg 89%
    15:00 -10°C° 0 mm 6 mps 730 mmHg 89%
    16:00 -11°C° 0 mm 6 mps 729 mmHg 90%
    17:00 -11°C° 0 mm 6 mps 729 mmHg 91%
    18:00 -11°C° 0.2 mm 6 mps 728 mmHg 92%
    19:00 -13°C° 0.2 mm 7 mps 728 mmHg 92%
    20:00 -13°C° 0.2 mm 7 mps 727 mmHg 93%
    21:00 -13°C° 0.9 mm 7 mps 727 mmHg 94%
    22:00 -13°C° 0.9 mm 7 mps 726 mmHg 94%
    23:00 -13°C° 0.9 mm 7 mps 725 mmHg 95%
    Show more